Погода в Альгеро

Италия     40°33′26″N   8°19′00″E
темп.,
°C
ветер,
м/с
пор.,
м/с
влажн.,
%
обл.,
%
осадки,
мм/ч
давл.,
гПа
погр.,
м
17 мая, пн
пн1723:00+18ююз44845 0.0 101270
02:00+17с358822 0.0 1012248
05:00+16ссз46878 0.0 1013423
08:00+17ссз45807 0.0 1014423
11:00+17сз6773100 0.0 1016553
14:00+16сз89635 0.0 1017708
17:00+16сз8106434 0.0 1017659
20:00+16сз710661 0.0 1017726
18 мая, вт
вт1823:00+16сз510703 0.0 1018629
02:00+17сз711745 0.0 1018711
05:00+17сз71078100 0.0 1018651
08:00+17сз577024 0.0 1019642
11:00+17зсз3465100 0.0 1020598
14:00+17зсз4559100 0.0 1019473
17:00+17сз456369 0.0 1018406
20:00+17ссз45710 0.0 1018354
19 мая, ср
ср1923:00+16с24741 0.0 1019311
02:00+17юз35747 0.0 1018361
05:00+17зсз468157 0.0 1018704
08:00+16сз45715 0.1 1019767
11:00+17сз67645 0.0 1020782
14:00+17сз68655 0.0 1020786
17:00+17сз810643 0.0 1020937
20:00+17зсз7106210 0.0 1020836
20 мая, чт
чт2023:00+17зсз814721 0.0 1020839
02:00+17зсз101474100 0.0 1019864
05:00+16сз11166877 0.0 10181080
08:00+16сз12166860 0.0 10191116
11:00+16сз1315682 0.0 10191189
14:00+16сз109714 0.0 1020867
17:00+17сз886950 0.0 1019569
20:00+17ссз787120 0.0 1021670
21 мая, пт
пт2123:00+15ссв348198 0.0 1022176
02:00+15св337910 0.0 1022130
05:00+14всв22695 0.0 1022118
08:00+15в115868 0.0 1023163
11:00+16ююз336458 0.0 1024253
14:00+18ююз566194 0.0 1023303
17:00+18юз456756 0.0 1021422
20:00+18ю3472100 0.0 1021269